Location: Newark
(45.2500°N, 7.5833°E)
Time: 01:59:22
(UTC+00:00)

A-11 Canister half - Pass Details

Date: 03 February 2020
Orbit: 1524 x 1684 km, 47.3° (Epoch: 21 February)

Event Time Altitude Azimuth Distance (km) Brightness Sun altitude
Rises 21:17:39 0° 293° (WNW) 4,723 12.2 -48.1°
Reaches altitude 10° 21:20:55 10° 286° (WNW) 3,755 11.5 -48.6°
Enters shadow 21:26:00 30° 261° (W) 2,541 10.2 -49.3°
